DECAYED

STARLINK-5648, 55363 (Decayed)

Orbit data source: Space-Track

STARLINK-5648, 55363 was a payload satellite owned by SpaceX/Seattle (US) in LEO that was launched on Thu, 26 Jan 2023 UTC via an FALCON 9 launch vehicle from the Air Force Eastern Test Range (AFETR). Payload-class satellites include a variety of spacecraft equipped with specific instruments for various scientific and technological missions. These include communications satellites like Starlink; space stations such as the ISS; scientific satellites like the Hubble; Earth observation satellites from companies like Planet Labs, Umbra, and HawkEye 360; GPS; miniature CubeSats for education and research; and military/defense satellites.

Not visible in the next 10 days
Identifier
55363, 2023-013AJ
Orbit
Decayed
Country
Flag of USUS
Related business
Manufacturer
SpaceX/Seattle
Mission
Decayed Commercial Communications
Bus & Motor
STARLINK, Unknown motor
Mass
305 kg wet, ~290 kg dry
Launch date (UTC)
2023-01-26 (3 years ago)
Launch vehicle
FALCON 9
Launch site
Air Force Eastern Test Range (AFETR)
Object type
Payload
Rocket body
Debris
Shape & HBR
Box + 1 Pan, 10.1 m
Radar Cross Section
13.562 m², Large (>1 m²)

Expand to show TLE details & history
Last TLE update: 8 months ago

TLE from 8 months ago
0 STARLINK-5648
1 55363U 23013AJ  25093.11866054  .13032617  93893-5  52923-3 0  9995
2 55363  42.9883 336.1131 0008341 274.4668 211.6593 16.43345016121070
Epoch: 2025-04-03T02:50Z
TLE epoch observation values (Epoch: 2025-04-03T02:50:52.270Z)
Latitude
33.57549°
Longitude
-123.37393°
Altitude
162.69 km
Speed
7.811 km/s
True Right ascension
07h 24m 09s
True Declination
33° 24' 10"
Sunlit
Object was in daylight at epoch
Visualization orbit readout
Latitude
Unknown
Longitude
Unknown
Altitude
Unknown
Speed
Unknown
Apparent Right ascension
Unknown
Apparent Declination
Unknown
Sunlit
N/A
Visualization observer readout
Local Sidereal Time
13:26:13
Azimuth
Unknown
Elevation
Unknown
Doppler factor
Unknown
Orbital elements
Apogee altitude
164.416 km
Perigee altitude
153.511 km
Semi-major axis
6,537.1 km
Eccentricity
0.00083
Inclination
42.9883°
RAAN
336.1131°
Arg. of periapsis
274.4668°
True anomaly
211.60918°
Mean anomaly
211.6593°
Eccentric anomaly
211.63423°
Mean motion
4.10644 °/min
Orbital period
87.67 mins
BSTAR
0.00052923
Loading maneuver chart data...
Computing Atmospheric mass density...
Loading historical data...
Loading historical data...
Loading historical data...
Loading historical data...
Loading historical data...
Loading historical data...
Loading historical data...

Documentation

Showing up to 5 results
|